Regional Weather Roundup
Issued by NWS

Home | Current Version | Previous Version | Text Only | Print | Product List | Glossary Off
Versions: 1 2 3 4 5 6 7 8 9 10 11 12 13 14 15 16 17 18 19 20 21 22 23 24 25 26 27 28 29 30 31 32 33 34 35 36 37 38 39 40 41 42 43 44 45 46 47 48 49 50

000
ASUS43 KFSD 270602
RWRSD

WEATHER ROUNDUP FOR SOUTH DAKOTA
NATIONAL WEATHER SERVICE SIOUX FALLS SD
100 AM CDT WED MAY 27 2015

NOTE: "FAIR" INDICATES FEW OR NO CLOUDS BELOW 12,000 FEET WITH NO
SIGNIFICANT WEATHER AND/OR OBSTRUCTIONS TO VISIBILITY.


SDZ001>005-009-010-012>017-270700-
NORTHWEST AND NORTH CENTRAL SOUTH DAKOTA

CITY           SKY/WX    TMP DP  RH WIND       PRES   REMARKS
FAITH            N/A     58  44  60 S7        29.97S
MOBRIDGE       CLEAR     59  53  80 SE5       29.91R
$$

SDZ012>016-024>037-041>051-057-063-072>074-270700-
SOUTHWEST AND SOUTH CENTRAL SOUTH DAKOTA

CITY           SKY/WX    TMP DP  RH WIND       PRES   REMARKS
RAPID CTY ARPT PTCLDY    52  48  86 S3        29.99S
PIERRE         CLEAR     54  47  77 CALM      29.93F
CUSTER         MOCLDY    45  43  93 CALM      30.08S
ELLSWORTH AFB  CLEAR     56  48  75 S7        29.98F
PHILIP         CLEAR     55  48  77 NW5       29.97S
PINE RIDGE     MOCLDY    52  45  77 E5        30.01F
WINNER         FAIR      61  49  64 SW8       29.97S
$$

SDZ004>011-016>023-039-040-270700-
NORTHEAST SOUTH DAKOTA

CITY           SKY/WX    TMP DP  RH WIND       PRES   REMARKS
ABERDEEN       CLEAR     52  50  93 W6        29.89R
WATERTOWN      PTCLDY    58  50  75 NW6       29.88R
BROOKINGS      CLOUDY    57  52  82 SW6       29.90R
$$

SDZ017-020-022-023-036>040-048>070-270700-
SOUTHEAST SOUTH DAKOTA

CITY           SKY/WX    TMP DP  RH WIND       PRES   REMARKS
SIOUX FALLS    MOCLDY    51  49  92 SW3       29.90S
HURON          PTCLDY    56  48  74 W3        29.90S
CHAMBERLAIN    PTCLDY    56  49  79 W5        29.95R
MITCHELL       MOCLDY    61  51  70 CALM      29.91S
YANKTON        PTCLDY    57  52  82 CALM      29.92R
$$

ABBREVIATIONS USED IN REMARKS
   TC - TEMPERATURE IN CELSIUS
  WCI - WIND CHILL INDEX
   HX - HEAT INDEX
  VSB - VISIBILITY



USA.gov is the U.S. government's official web portal to all federal, state and local government web resources and services.